Radiation Dose at Monitoring Post of Fukushima Daini Nuclear Power Station
Date,Time,MP-1(microSv/h),MP-2(microSv/h),MP-3(microSv/h),MP-4(microSv/h),MP-5(microSv/h),MP-6(microSv/h),MP-7(microSv/h),Wind Direction,Wind Velocity(m/s),Rain
2019/07/16,00:00,0.181,0.165,0.273,0.258,0.260,0.136,0.086,north-northwest,5.1,Yes
2019/07/16,00:10,0.182,0.165,0.273,0.255,0.262,0.135,0.085,north-northwest,4.4,Yes
2019/07/16,00:20,0.182,0.163,0.273,0.258,0.260,0.137,0.085,north-northwest,4.9,Yes
2019/07/16,00:30,0.183,0.165,0.271,0.258,0.265,0.136,0.085,northwest,5.3,No
2019/07/16,00:40,0.181,0.164,0.273,0.258,0.260,0.137,0.086,north-northwest,5.5,No
2019/07/16,00:50,0.182,0.164,0.273,0.256,0.262,0.135,0.086,north-northwest,6.2,No
2019/07/16,01:00,0.180,0.164,0.273,0.257,0.261,0.136,0.086,north-northwest,6.2,No
2019/07/16,01:10,0.183,0.165,0.272,0.257,0.262,0.135,0.085,north-northwest,5.9,No
2019/07/16,01:20,0.181,0.164,0.274,0.257,0.261,0.136,0.086,north-northwest,6.2,No
2019/07/16,01:30,0.182,0.164,0.271,0.258,0.262,0.137,0.085,north-northwest,5.6,Yes
2019/07/16,01:40,0.181,0.164,0.273,0.256,0.261,0.135,0.085,north-northwest,5.4,Yes
2019/07/16,01:50,0.182,0.165,0.273,0.257,0.260,0.137,0.086,north-northwest,5.6,Yes
2019/07/16,02:00,0.182,0.164,0.274,0.255,0.262,0.135,0.085,north-northwest,6.2,No
2019/07/16,02:10,0.181,0.165,0.271,0.257,0.259,0.136,0.086,north-northwest,5.2,No
2019/07/16,02:20,0.183,0.164,0.274,0.255,0.262,0.135,0.085,north-northwest,5.3,Yes
2019/07/16,02:30,0.181,0.164,0.272,0.257,0.259,0.136,0.086,north-northwest,5.6,Yes
2019/07/16,02:40,0.182,0.164,0.274,0.255,0.261,0.136,0.086,north,5.7,Yes
2019/07/16,02:50,0.181,0.165,0.271,0.257,0.260,0.137,0.085,north,5.3,Yes
2019/07/16,03:00,0.182,0.164,0.273,0.256,0.262,0.136,0.085,north-northwest,5.9,Yes
2019/07/16,03:10,0.181,0.165,0.271,0.255,0.260,0.134,0.085,north-northwest,6.2,Yes
2019/07/16,03:20,0.181,0.164,0.271,0.257,0.260,0.136,0.085,north,5.6,Yes
2019/07/16,03:30,0.181,0.164,0.272,0.257,0.262,0.136,0.085,north,5.6,Yes
2019/07/16,03:40,0.181,0.164,0.272,0.257,0.260,0.136,0.085,north,6.6,Yes
2019/07/16,03:50,0.182,0.164,0.273,0.254,0.263,0.136,0.084,north,7.0,No
2019/07/16,04:00,0.180,0.164,0.271,0.257,0.258,0.136,0.086,north,5.9,Yes
2019/07/16,04:10,0.181,0.165,0.273,0.254,0.260,0.136,0.085,north,4.4,Yes
2019/07/16,04:20,0.180,0.164,0.271,0.256,0.259,0.135,0.085,north,6.3,Yes
2019/07/16,04:30,0.182,0.164,0.274,0.255,0.261,0.135,0.085,north,7.3,No
2019/07/16,04:40,0.180,0.165,0.271,0.255,0.260,0.134,0.085,north,5.6,No
2019/07/16,04:50,0.182,0.163,0.273,0.255,0.260,0.135,0.085,north,5.5,No
2019/07/16,05:00,0.180,0.163,0.271,0.254,0.259,0.135,0.086,north,5.9,No
2019/07/16,05:10,0.181,0.164,0.273,0.255,0.260,0.135,0.085,north,7.3,No
2019/07/16,05:20,0.181,0.163,0.271,0.254,0.262,0.135,0.084,north-northwest,7.0,No
2019/07/16,05:30,0.181,0.165,0.272,0.256,0.259,0.134,0.085,north,6.2,No
2019/07/16,05:40,0.181,0.164,0.270,0.254,0.262,0.134,0.085,north-northwest,5.1,No
2019/07/16,05:50,0.180,0.164,0.270,0.256,0.259,0.134,0.085,north,6.3,No
2019/07/16,06:00,0.181,0.163,0.272,0.254,0.259,0.135,0.085,north,4.6,No
2019/07/16,06:10,0.180,0.163,0.270,0.255,0.259,0.135,0.085,north,5.2,No
2019/07/16,06:20,0.182,0.163,0.272,0.254,0.258,0.133,0.085,north-northwest,6.0,No
2019/07/16,06:30,0.181,0.163,0.270,0.255,0.261,0.134,0.086,north-northwest,6.0,No
2019/07/16,06:40,0.181,0.163,0.273,0.256,0.258,0.134,0.084,north-northwest,4.9,No
2019/07/16,06:50,0.181,0.163,0.270,0.254,0.262,0.134,0.085,north-northwest,4.8,Yes
2019/07/16,07:00,0.181,0.164,0.272,0.256,0.260,0.135,0.084,north-northwest,4.3,Yes
2019/07/16,07:10,0.181,0.165,0.273,0.255,0.261,0.134,0.085,north-northwest,5.5,Yes
2019/07/16,07:20,0.180,0.164,0.272,0.256,0.258,0.136,0.085,north-northwest,5.2,Yes
2019/07/16,07:30,0.182,0.164,0.272,0.254,0.258,0.134,0.085,north-northwest,4.9,No
2019/07/16,07:40,0.180,0.163,0.271,0.253,0.261,0.135,0.086,north-northwest,3.9,No
2019/07/16,07:50,0.183,0.164,0.273,0.256,0.258,0.135,0.085,north,6.2,No
2019/07/16,08:00,0.182,0.164,0.271,0.255,0.261,0.134,0.086,north-northwest,4.4,No
2019/07/16,08:10,0.181,0.163,0.272,0.254,0.259,0.135,0.085,north-northwest,6.0,Yes
2019/07/16,08:20,0.181,0.165,0.272,0.254,0.259,0.135,0.084,north-northwest,5.1,No
2019/07/16,08:30,0.180,0.163,0.271,0.254,0.261,0.134,0.084,north-northwest,4.8,No
2019/07/16,08:40,0.181,0.165,0.272,0.256,0.259,0.135,0.085,north-northwest,6.2,No
2019/07/16,08:50,0.180,0.164,0.270,0.254,0.260,0.135,0.085,north-northwest,5.0,No
2019/07/16,09:00,0.180,0.164,0.272,0.256,0.260,0.134,0.085,north-northwest,5.7,No
2019/07/16,09:10,0.181,0.164,0.271,0.255,0.258,0.135,0.083,north-northwest,5.6,No
2019/07/16,09:20,0.180,0.162,0.271,0.254,0.261,0.135,0.085,north-northwest,4.6,No
2019/07/16,09:30,0.181,0.164,0.272,0.256,0.260,0.135,0.085,north-northwest,4.9,No
2019/07/16,09:40,0.180,0.163,0.271,0.254,0.258,0.136,0.084,north-northwest,5.1,No
2019/07/16,09:50,0.182,0.164,0.274,0.255,0.261,0.135,0.085,north-northwest,4.8,No
2019/07/16,10:00,0.182,0.163,0.270,0.256,0.259,0.133,0.085,north,4.2,No
2019/07/16,10:10,0.180,0.163,0.271,0.253,0.258,0.135,0.084,north,4.0,No
2019/07/16,10:20,0.182,0.164,0.273,0.257,0.261,0.134,0.086,north-northwest,4.0,No
2019/07/16,10:30,0.182,0.164,0.270,0.255,0.260,0.134,0.086,north-northwest,2.9,No
2019/07/16,10:40,0.180,0.162,0.272,0.253,0.257,0.134,0.085,north-northwest,3.7,Yes
2019/07/16,10:50,0.182,0.165,0.272,0.255,0.260,0.135,0.085,north,4.1,No
2019/07/16,11:00,0.182,0.164,0.270,0.256,0.260,0.135,0.085,north-northwest,4.4,No
2019/07/16,11:10,0.180,0.164,0.272,0.254,0.259,0.135,0.085,north-northwest,4.8,No
2019/07/16,11:20,0.180,0.163,0.272,0.255,0.258,0.134,0.085,north-northwest,4.2,No
2019/07/16,11:30,0.182,0.164,0.270,0.256,0.258,0.136,0.085,north-northwest,4.2,No
2019/07/16,11:40,0.181,0.164,0.273,0.254,0.263,0.136,0.085,north,3.8,No
2019/07/16,11:50,0.181,0.163,0.272,0.255,0.260,0.135,0.085,north,4.1,No
2019/07/16,12:00,0.182,0.164,0.271,0.256,0.259,0.134,0.085,north,4.0,No
2019/07/16,12:10,0.181,0.164,0.272,0.257,0.260,0.136,0.084,north,3.5,No
2019/07/16,12:20,0.180,0.164,0.273,0.254,0.262,0.136,0.085,north,3.5,No
2019/07/16,12:30,0.181,0.165,0.271,0.257,0.261,0.134,0.085,north,3.7,No
2019/07/16,12:40,0.180,0.165,0.272,0.257,0.258,0.135,0.084,north,4.3,No
2019/07/16,12:50,0.182,0.163,0.273,0.256,0.261,0.136,0.085,north-northwest,3.8,No
2019/07/16,13:00,0.182,0.165,0.271,0.255,0.262,0.135,0.086,north-northwest,3.2,No
2019/07/16,13:10,0.179,0.165,0.271,0.256,0.261,0.135,0.085,north-northwest,3.6,No
2019/07/16,13:20,0.181,0.163,0.273,0.256,0.259,0.135,0.085,north-northwest,3.3,No
2019/07/16,13:30,0.182,0.164,0.271,0.255,0.260,0.136,0.085,north,3.8,No
2019/07/16,13:40,0.180,0.165,0.271,0.258,0.264,0.135,0.085,north,4.8,No
2019/07/16,13:50,0.183,0.164,0.273,0.257,0.261,0.135,0.086,north,4.2,No
2019/07/16,14:00,0.182,0.163,0.272,0.254,0.259,0.135,0.085,north-northwest,4.5,No
2019/07/16,14:10,0.180,0.165,0.272,0.256,0.261,0.136,0.085,north,4.2,No
2019/07/16,14:20,0.183,0.165,0.275,0.257,0.263,0.135,0.086,north-northwest,3.1,No
2019/07/16,14:30,0.182,0.165,0.272,0.255,0.261,0.135,0.085,north-northwest,4.1,No
2019/07/16,14:40,0.181,0.165,0.270,0.254,0.259,0.135,0.085,north,3.8,No
2019/07/16,14:50,0.183,0.164,0.274,0.258,0.259,0.136,0.086,north-northwest,4.0,No
2019/07/16,15:00,0.182,0.162,0.273,0.257,0.261,0.136,0.085,north,3.6,No
2019/07/16,15:10,0.180,0.166,0.271,0.256,0.263,0.135,0.085,north-northwest,4.3,No
2019/07/16,15:20,0.182,0.165,0.273,0.255,0.261,0.134,0.085,north,3.9,No
2019/07/16,15:30,0.182,0.163,0.273,0.258,0.260,0.135,0.086,north,3.1,No
2019/07/16,15:40,0.180,0.165,0.271,0.257,0.259,0.136,0.085,north-northwest,4.1,No
2019/07/16,15:50,0.182,0.165,0.272,0.255,0.261,0.136,0.084,north,3.8,No
2019/07/16,16:00,0.183,0.163,0.275,0.256,0.263,0.136,0.086,north,4.1,No
2019/07/16,16:10,0.181,0.165,0.272,0.259,0.262,0.136,0.085,north,3.8,No
2019/07/16,16:20,0.183,0.165,0.271,0.255,0.259,0.137,0.085,north-northwest,3.7,No
2019/07/16,16:30,0.181,0.163,0.276,0.256,0.263,0.136,0.086,north,3.8,No
2019/07/16,16:40,0.181,0.166,0.273,0.258,0.263,0.135,0.085,north-northwest,4.2,No
2019/07/16,16:50,0.182,0.165,0.272,0.256,0.259,0.136,0.085,north-northwest,3.4,No
2019/07/16,17:00,0.181,0.164,0.274,0.255,0.261,0.136,0.085,north-northwest,3.3,No
2019/07/16,17:10,0.182,0.165,0.272,0.259,0.264,0.134,0.085,northwest,4.1,No
2019/07/16,17:20,0.183,0.165,0.275,0.255,0.260,0.136,0.086,north-northwest,4.1,No
2019/07/16,17:30,0.181,0.164,0.275,0.257,0.260,0.136,0.086,northwest,3.0,No
2019/07/16,17:40,0.182,0.166,0.272,0.259,0.264,0.136,0.086,north-northwest,2.3,No
2019/07/16,17:50,0.182,0.164,0.275,0.256,0.261,0.136,0.085,north-northwest,2.7,No
2019/07/16,18:00,0.181,0.165,0.272,0.256,0.262,0.137,0.085,north-northwest,3.3,No
2019/07/16,18:10,0.182,0.165,0.272,0.257,0.263,0.135,0.086,northwest,2.4,No
2019/07/16,18:20,0.181,0.163,0.274,0.256,0.260,0.136,0.085,north-northwest,2.6,No
2019/07/16,18:30,0.182,0.165,0.272,0.258,0.262,0.135,0.087,north-northwest,3.7,No
2019/07/16,18:40,0.183,0.166,0.275,0.259,0.262,0.135,0.085,north-northwest,4.0,No
2019/07/16,18:50,0.181,0.164,0.274,0.256,0.260,0.136,0.085,northwest,2.8,No
2019/07/16,19:00,0.183,0.165,0.273,0.258,0.264,0.136,0.086,north-northwest,3.7,Yes
2019/07/16,19:10,0.183,0.164,0.274,0.257,0.262,0.135,0.086,north-northwest,4.6,Yes
2019/07/16,19:20,0.182,0.164,0.272,0.257,0.261,0.137,0.086,north-northwest,4.2,Yes
2019/07/16,19:30,0.182,0.165,0.275,0.259,0.262,0.136,0.085,north-northwest,4.8,No
2019/07/16,19:40,0.182,0.165,0.274,0.256,0.260,0.136,0.085,north-northwest,3.8,No
2019/07/16,19:50,0.184,0.165,0.274,0.258,0.264,0.136,0.086,north-northwest,2.8,Yes
2019/07/16,20:00,0.183,0.165,0.274,0.259,0.262,0.136,0.085,north,4.3,Yes
2019/07/16,20:10,0.183,0.167,0.273,0.257,0.263,0.137,0.086,north,3.6,No
2019/07/16,20:20,0.184,0.166,0.276,0.258,0.265,0.138,0.085,north-northwest,3.5,No
2019/07/16,20:30,0.182,0.167,0.273,0.257,0.261,0.136,0.085,northwest,4.0,No
2019/07/16,20:40,0.185,0.166,0.274,0.260,0.265,0.137,0.086,northwest,3.9,Yes
2019/07/16,20:50,0.182,0.167,0.275,0.257,0.262,0.137,0.086,north-northwest,2.6,Yes
2019/07/16,21:00,0.184,0.166,0.273,0.259,0.262,0.137,0.087,north,3.6,No
2019/07/16,21:10,0.183,0.166,0.274,0.259,0.264,0.138,0.086,north,3.7,No
2019/07/16,21:20,0.182,0.165,0.273,0.256,0.260,0.136,0.086,north,2.5,No
2019/07/16,21:30,0.184,0.164,0.274,0.260,0.263,0.137,0.086,north,2.7,No
2019/07/16,21:40,0.183,0.165,0.273,0.257,0.261,0.137,0.085,north-northwest,4.3,Yes
2019/07/16,21:50,0.182,0.164,0.274,0.258,0.263,0.136,0.086,north-northwest,5.3,Yes
2019/07/16,22:00,0.183,0.166,0.274,0.258,0.262,0.137,0.086,northwest,6.0,Yes
2019/07/16,22:10,0.180,0.164,0.272,0.257,0.261,0.136,0.085,north-northwest,5.3,Yes
2019/07/16,22:20,0.184,0.164,0.274,0.259,0.264,0.136,0.086,north-northwest,5.5,Yes
2019/07/16,22:30,0.182,0.166,0.273,0.256,0.260,0.137,0.086,north-northwest,5.3,Yes
2019/07/16,22:40,0.184,0.165,0.275,0.258,0.261,0.136,0.087,north-northwest,5.4,Yes
2019/07/16,22:50,0.183,0.167,0.273,0.257,0.263,0.137,0.087,north-northwest,5.4,Yes
2019/07/16,23:00,0.183,0.166,0.274,0.257,0.261,0.138,0.087,northwest,4.9,Yes
2019/07/16,23:10,0.183,0.165,0.275,0.258,0.263,0.137,0.087,northwest,4.1,Yes
2019/07/16,23:20,0.183,0.165,0.273,0.258,0.261,0.138,0.086,northwest,2.6,Yes
2019/07/16,23:30,0.185,0.166,0.274,0.258,0.263,0.137,0.087,northwest,2.8,Yes
2019/07/16,23:40,0.182,0.165,0.273,0.257,0.262,0.138,0.087,northwest,3.1,Yes
2019/07/16,23:50,0.184,0.166,0.275,0.258,0.261,0.137,0.088,west-northwest,2.8,Yes
